Home > Weather > Corner Brook > Past weeks

Flag for Canada Past Weather in Corner Brook, Newfoundland and Labrador, Canada — Yesterday and Last 2 Weeks

Now
63 °F

Clear.


Feels Like: 63 °F
Forecast: 53 / 68 °F
Wind: 6 mph from Southwest

Location: Deer Lake

Current Time: Jul 30, 2016 at 11:18:25 PM

Latest Report: Jul 30, 2016 at 10:30 PM


Visibility: 15 mi

Pressure: 29.87 "Hg

Humidity: 73%

Dew Point: 54 °F

Location of Corner BrookLocation

Past Weather in Corner Brook — Graph

°F

Corner Brook Temperature Yesterday

Maximum temperature yesterday: 77 °F (at 4:38 PM)
Minimum temperature yesterday: 63 °F (at 2:30 AM)
Average temperature yesterday: 68 °F

High & Low Weather Summary for the Past Weeks

 TemperatureHumidityPressure
High82 °F (Jul 17, 4:30 PM)100% (Jul 17, 4:30 AM)30.16 "Hg (Jul 17, 4:30 AM)
Low41 °F (Jul 26, 5:30 AM)38% (Jul 25, 6:30 PM)29.59 "Hg (Jul 23, 1:30 PM)
Average65 °F78%29.83 "Hg
* Reported Jul 15 9:30 PM — Jul 30 9:30 PM, Corner Brook, Weather by CustomWeather, © 2016

Note: Actual official high and low records may vary slightly from our data, if they occured in-between our weather recording intervals... More about our weather records

Advertising

Corner Brook Weather History for the Previous 24 Hours

Scroll right to see more
 ConditionsComfort  
Time TempWeatherWind HumidityBarometerVisibility
9:30 PM
Sat, Jul 30
64 °FPassing clouds.7 mph68%29.86 "Hg15 mi
8:30 PM68 °FPassing clouds.7 mph64%29.84 "Hg15 mi
7:30 PM72 °FPassing clouds.10 mph57%29.83 "Hg15 mi
6:30 PM75 °FPassing clouds.9 mph54%29.82 "Hg15 mi
5:30 PM77 °FPassing clouds.14 mph54%29.81 "Hg15 mi
4:30 PM77 °FScattered clouds.9 mph57%29.80 "Hg15 mi
3:30 PM79 °FScattered clouds.13 mph51%29.79 "Hg15 mi
2:30 PM79 °FScattered clouds.8 mph54%29.79 "Hg15 mi
1:30 PM77 °FScattered clouds.7 mph61%29.80 "Hg15 mi
12:30 PM73 °FScattered clouds.8 mph69%29.81 "Hg15 mi
11:30 AM72 °FPartly sunny.6 mph73%29.83 "Hg15 mi
10:30 AM70 °FPartly sunny.8 mph78%29.83 "Hg15 mi
9:30 AM68 °FSprinkles. More clouds than sun.7 mph88%29.83 "Hg15 mi
8:30 AM66 °FSprinkles. Partly sunny.7 mph94%29.84 "Hg15 mi
7:30 AM64 °FSprinkles. Partly sunny.3 mph94%29.83 "Hg12 mi
6:30 AM64 °FSprinkles. Partly sunny.6 mph94%29.83 "Hg12 mi
5:30 AM64 °FSprinkles. Partly cloudy.7 mph100%29.83 "Hg10 mi
4:30 AM64 °FSprinkles. Overcast.7 mph100%29.83 "Hg8 mi
3:30 AM64 °FSprinkles. Mostly cloudy.5 mph100%29.84 "Hg15 mi
2:30 AM64 °FSprinkles. Mostly cloudy.2 mph100%29.84 "Hg10 mi
1:30 AM64 °FSprinkles. Mostly cloudy.2 mph94%29.85 "Hg12 mi
12:30 AM64 °FOvercast.2 mph94%29.87 "Hg12 mi
11:30 PM
Fri, Jul 29
64 °FPartly cloudy.No wind94%29.88 "Hg15 mi
Weather by CustomWeather, © 2016

See weather overviewHow to use our weather pages